When you browse on this site, cookies collect data to enhance your experience and personalize the content and advertising you see.
Visit our Privacy Policy to learn more. By continuing to use the site, you agree to this use of cookies and data.
  • In Denmark
  • List of Countries
  • For 7 days
  • Water Temperature
  • Weather Map
  • Weather Widgets
  • user-avatar
    Login

    Hourly Weather Asadabad

    Today, 20 August, Tuesday

    Time Temperature Precipitation Wind Pressure Humidity
    00:00 +24°C° 0 mm 1 mps 658 mmHg 68%
    01:00 +24°C° 0 mm 1 mps 657 mmHg 67%
    02:00 +23°C° 0 mm 1 mps 657 mmHg 66%
    03:00 +23°C° 0.1 mm 1 mps 657 mmHg 66%
    04:00 +23°C° 0.1 mm 1 mps 657 mmHg 66%
    05:00 +22°C° 0.1 mm 1 mps 657 mmHg 65%
    06:00 +22°C° 0 mm 0 mps 657 mmHg 58%
    07:00 +23°C° 0 mm 0 mps 658 mmHg 51%
    08:00 +24°C° 0 mm 0 mps 658 mmHg 44%
    09:00 +27°C° 0 mm 1 mps 658 mmHg 43%
    10:00 +29°C° 0 mm 1 mps 658 mmHg 41%
    11:00 +30°C° 0 mm 2 mps 659 mmHg 40%
    12:00 +30°C° 0 mm 2 mps 658 mmHg 38%
    13:00 +31°C° 0 mm 2 mps 658 mmHg 35%
    14:00 +32°C° 0 mm 2 mps 658 mmHg 33%
    15:00 +32°C° 0 mm 2 mps 657 mmHg 33%
    16:00 +32°C° 0 mm 2 mps 657 mmHg 33%
    17:00 +32°C° 0 mm 2 mps 657 mmHg 32%
    18:00 +30°C° 0.1 mm 2 mps 656 mmHg 41%
    19:00 +28°C° 0.1 mm 1 mps 656 mmHg 49%
    20:00 +27°C° 0.1 mm 1 mps 656 mmHg 58%
    21:00 +26°C° 0 mm 1 mps 656 mmHg 61%
    22:00 +24°C° 0 mm 0 mps 656 mmHg 63%
    23:00 +24°C° 0 mm 0 mps 656 mmHg 66%

    Tomorrow, 21 August, Wednesday

    Time Temperature Precipitation Wind Pressure Humidity
    00:00 +23°C° 0 mm 0 mps 655 mmHg 65%
    01:00 +23°C° 0 mm 0 mps 655 mmHg 64%
    02:00 +22°C° 0 mm 0 mps 655 mmHg 63%
    03:00 +24°C° 0 mm 1 mps 655 mmHg 61%
    04:00 +24°C° 0 mm 1 mps 655 mmHg 59%
    05:00 +24°C° 0 mm 1 mps 655 mmHg 58%
    06:00 +25°C° 0 mm 1 mps 655 mmHg 51%
    07:00 +24°C° 0 mm 0 mps 656 mmHg 45%
    08:00 +26°C° 0 mm 0 mps 656 mmHg 38%
    09:00 +29°C° 0 mm 1 mps 656 mmHg 37%
    10:00 +30°C° 0 mm 1 mps 657 mmHg 37%
    11:00 +31°C° 0 mm 2 mps 657 mmHg 36%
    12:00 +31°C° 0 mm 2 mps 657 mmHg 35%
    13:00 +32°C° 0 mm 2 mps 657 mmHg 35%
    14:00 +34°C° 0 mm 3 mps 657 mmHg 34%
    15:00 +34°C° 0 mm 3 mps 657 mmHg 34%
    16:00 +33°C° 0 mm 3 mps 656 mmHg 35%
    17:00 +33°C° 0 mm 3 mps 656 mmHg 35%
    18:00 +31°C° 0.2 mm 2 mps 656 mmHg 43%
    19:00 +29°C° 0.2 mm 1 mps 656 mmHg 52%
    20:00 +28°C° 0.2 mm 1 mps 656 mmHg 60%
    21:00 +27°C° 0.1 mm 1 mps 656 mmHg 60%
    22:00 +27°C° 0.1 mm 1 mps 656 mmHg 60%
    23:00 +26°C° 0.1 mm 1 mps 655 mmHg 61%

    Day after tomorrow, 22 August, Thursday

    Time Temperature Precipitation Wind Pressure Humidity
    00:00 +26°C° 0 mm 1 mps 655 mmHg 61%
    01:00 +25°C° 0 mm 1 mps 655 mmHg 61%
    02:00 +25°C° 0 mm 1 mps 655 mmHg 61%
    03:00 +25°C° 0 mm 1 mps 655 mmHg 60%
    04:00 +24°C° 0 mm 1 mps 655 mmHg 59%
    05:00 +24°C° 0 mm 1 mps 654 mmHg 58%
    06:00 +23°C° 0 mm 0 mps 655 mmHg 52%
    07:00 +25°C° 0 mm 0 mps 656 mmHg 46%
    08:00 +26°C° 0 mm 0 mps 656 mmHg 41%
    09:00 +29°C° 0 mm 1 mps 656 mmHg 40%
    10:00 +30°C° 0 mm 1 mps 657 mmHg 39%
    11:00 +31°C° 0 mm 2 mps 657 mmHg 38%
    12:00 +32°C° 0 mm 2 mps 657 mmHg 36%
    13:00 +34°C° 0 mm 3 mps 657 mmHg 35%
    14:00 +34°C° 0 mm 3 mps 657 mmHg 33%
    15:00 +34°C° 0 mm 3 mps 656 mmHg 34%
    16:00 +34°C° 0 mm 3 mps 656 mmHg 35%
    17:00 +34°C° 0 mm 3 mps 656 mmHg 36%
    18:00 +31°C° 0 mm 2 mps 656 mmHg 43%
    19:00 +30°C° 0 mm 2 mps 655 mmHg 51%
    20:00 +28°C° 0 mm 1 mps 655 mmHg 59%
    21:00 +28°C° 0 mm 1 mps 655 mmHg 61%
    22:00 +27°C° 0 mm 1 mps 655 mmHg 63%
    23:00 +27°C° 0 mm 1 mps 655 mmHg 66%

    23 August, Friday

    Time Temperature Precipitation Wind Pressure Humidity
    00:00 +26°C° 0 mm 1 mps 655 mmHg 66%
    01:00 +26°C° 0 mm 1 mps 655 mmHg 66%
    02:00 +25°C° 0 mm 1 mps 655 mmHg 66%
    03:00 +25°C° 0 mm 1 mps 655 mmHg 67%
    04:00 +25°C° 0 mm 1 mps 655 mmHg 67%
    05:00 +24°C° 0 mm 1 mps 655 mmHg 67%
    06:00 +26°C° 0 mm 1 mps 655 mmHg 63%
    07:00 +27°C° 0 mm 1 mps 656 mmHg 59%
    08:00 +28°C° 0 mm 1 mps 656 mmHg 55%
    09:00 +29°C° 0 mm 1 mps 656 mmHg 52%
    10:00 +30°C° 0 mm 2 mps 657 mmHg 49%
    11:00 +31°C° 0 mm 2 mps 657 mmHg 46%
    12:00 +31°C° 0 mm 2 mps 657 mmHg 44%
    13:00 +33°C° 0 mm 3 mps 656 mmHg 41%
    14:00 +34°C° 0 mm 3 mps 656 mmHg 39%
    15:00 +34°C° 0.1 mm 3 mps 656 mmHg 41%
    16:00 +33°C° 0.1 mm 3 mps 656 mmHg 42%
    17:00 +33°C° 0.1 mm 3 mps 656 mmHg 44%
    18:00 +31°C° 0.3 mm 2 mps 656 mmHg 50%
    19:00 +30°C° 0.3 mm 2 mps 656 mmHg 57%
    20:00 +28°C° 0.3 mm 1 mps 656 mmHg 63%
    21:00 +28°C° 0.3 mm 1 mps 656 mmHg 65%
    22:00 +27°C° 0.3 mm 1 mps 656 mmHg 66%
    23:00 +25°C° 0.3 mm 0 mps 656 mmHg 68%

    24 August, Saturday

    Time Temperature Precipitation Wind Pressure Humidity
    00:00 +25°C° 0 mm 0 mps 656 mmHg 68%
    01:00 +26°C° 0 mm 1 mps 655 mmHg 68%
    02:00 +26°C° 0 mm 1 mps 655 mmHg 68%
    03:00 +26°C° 0 mm 1 mps 655 mmHg 66%
    04:00 +25°C° 0 mm 1 mps 655 mmHg 63%
    05:00 +25°C° 0 mm 1 mps 655 mmHg 61%
    06:00 +26°C° 0.2 mm 1 mps 656 mmHg 55%
    07:00 +27°C° 0.2 mm 1 mps 656 mmHg 50%
    08:00 +26°C° 0.2 mm 0 mps 657 mmHg 44%
    09:00 +29°C° 0 mm 1 mps 657 mmHg 44%
    10:00 +30°C° 0 mm 1 mps 657 mmHg 43%
    11:00 +31°C° 0 mm 2 mps 657 mmHg 43%
    12:00 +32°C° 0 mm 2 mps 657 mmHg 40%
    13:00 +34°C° 0 mm 2 mps 657 mmHg 37%
    14:00 +35°C° 0 mm 2 mps 656 mmHg 34%
    15:00 +35°C° 0 mm 2 mps 656 mmHg 34%
    16:00 +35°C° 0 mm 2 mps 656 mmHg 35%
    17:00 +35°C° 0 mm 3 mps 656 mmHg 35%
    18:00 +32°C° 0 mm 2 mps 656 mmHg 43%
    19:00 +31°C° 0 mm 1 mps 655 mmHg 51%
    20:00 +29°C° 0 mm 1 mps 655 mmHg 58%
    21:00 +29°C° 0 mm 1 mps 655 mmHg 61%
    22:00 +28°C° 0 mm 1 mps 655 mmHg 63%
    23:00 +26°C° 0 mm 0 mps 655 mmHg 65%

    25 August, Sunday

    Time Temperature Precipitation Wind Pressure Humidity
    00:00 +25°C° 0 mm 0 mps 655 mmHg 66%
    01:00 +25°C° 0 mm 0 mps 655 mmHg 66%
    02:00 +25°C° 0 mm 0 mps 655 mmHg 67%
    03:00 +24°C° 0 mm 0 mps 655 mmHg 66%
    04:00 +26°C° 0 mm 1 mps 655 mmHg 64%
    05:00 +26°C° 0 mm 1 mps 655 mmHg 63%
    06:00 +27°C° 0 mm 1 mps 655 mmHg 58%
    07:00 +26°C° 0 mm 0 mps 656 mmHg 53%
    08:00 +27°C° 0 mm 0 mps 656 mmHg 48%
    09:00 +30°C° 0 mm 1 mps 656 mmHg 47%
    10:00 +31°C° 0 mm 1 mps 656 mmHg 45%
    11:00 +32°C° 0 mm 2 mps 656 mmHg 44%
    12:00 +34°C° 0 mm 2 mps 656 mmHg 42%
    13:00 +35°C° 0 mm 3 mps 656 mmHg 40%
    14:00 +35°C° 0 mm 3 mps 656 mmHg 37%
    15:00 +35°C° 0 mm 3 mps 656 mmHg 39%
    16:00 +35°C° 0 mm 3 mps 655 mmHg 41%
    17:00 +35°C° 0 mm 3 mps 655 mmHg 42%
    18:00 +32°C° 0.1 mm 2 mps 655 mmHg 49%
    19:00 +31°C° 0.1 mm 2 mps 655 mmHg 55%
    20:00 +29°C° 0.1 mm 1 mps 655 mmHg 61%
    21:00 +29°C° 0.3 mm 1 mps 655 mmHg 64%
    22:00 +28°C° 0.3 mm 1 mps 655 mmHg 66%
    23:00 +26°C° 0.3 mm 0 mps 656 mmHg 69%
    Show more